CT06 KBDL-KBAS

Flight info

Callsign CT06
Flight time N/A
Altitude VFR/003
Route
Aircraft C172/L-VGD/C

Departure

Time 2026-04-30 02:50
Airport Bradley International Airport (KBDL)

Arrival

Time N/A
Airport KBAS
Time Latitude Longitude Altitude Speed Heading
2026-04-30 02:18 41.93431 -72.69903 176 ft 0 kts 178°
2026-04-30 02:40 41.93413 -72.69901 176 ft 0 kts 167°
2026-04-30 02:41 41.93401 -72.69891 177 ft 7 kts 119°
2026-04-30 02:41 41.93388 -72.69815 177 ft 7 kts 130°
2026-04-30 02:41 41.93411 -72.69679 178 ft 25 kts 46°
2026-04-30 02:42 41.93533 -72.69519 179 ft 24 kts 44°
2026-04-30 02:42 41.93634 -72.69387 181 ft 17 kts 47°
2026-04-30 02:42 41.93708 -72.69288 181 ft 15 kts 39°
2026-04-30 02:42 41.93786 -72.69187 180 ft 15 kts 44°
2026-04-30 02:43 41.93857 -72.69096 180 ft 13 kts 30°
2026-04-30 02:43 41.93940 -72.69150 177 ft 17 kts 314°
2026-04-30 02:43 41.94019 -72.69259 177 ft 15 kts 315°
2026-04-30 02:43 41.94094 -72.69361 177 ft 14 kts 314°
2026-04-30 02:44 41.94103 -72.69373 177 ft 2 kts 313°
2026-04-30 02:44 41.94158 -72.69386 177 ft 13 kts 18°
2026-04-30 02:44 41.94180 -72.69372 176 ft 0 kts 45°
2026-04-30 02:49 41.94182 -72.69371 176 ft 3 kts 41°
2026-04-30 02:49 41.94197 -72.69265 175 ft 20 kts 131°
2026-04-30 02:50 41.94013 -72.69013 175 ft 64 kts 136°
2026-04-30 02:50 41.93676 -72.68544 330 ft 77 kts 134°
2026-04-30 02:50 41.93268 -72.68020 513 ft 87 kts 141°
2026-04-30 02:50 41.92855 -72.67485 854 ft 79 kts 137°
2026-04-30 02:51 41.92473 -72.66930 1130 ft 81 kts 135°
2026-04-30 02:51 41.92060 -72.66295 1259 ft 100 kts 137°
2026-04-30 02:51 41.91525 -72.65720 1564 ft 96 kts 148°
2026-04-30 02:51 41.90960 -72.65202 1750 ft 100 kts 151°
2026-04-30 02:52 41.90351 -72.64780 1878 ft 101 kts 158°
2026-04-30 02:52 41.89668 -72.64435 2013 ft 108 kts 165°
2026-04-30 02:52 41.88939 -72.64172 2086 ft 104 kts 204°
2026-04-30 02:52 41.88265 -72.64289 1968 ft 96 kts 193°
2026-04-30 02:53 41.87569 -72.64306 2101 ft 101 kts 177°
2026-04-30 02:53 41.86958 -72.63963 2361 ft 96 kts 112°
2026-04-30 02:53 41.87071 -72.63116 2568 ft 100 kts 63°
2026-04-30 02:53 41.87417 -72.62239 2725 ft 111 kts 60°
2026-04-30 02:54 41.87855 -72.61428 2947 ft 104 kts 45°
2026-04-30 02:54 41.88352 -72.60812 3247 ft 91 kts 33°
2026-04-30 02:54 41.88757 -72.60466 3460 ft 94 kts 27°
2026-04-30 02:55 41.88872 -72.60384 3492 ft 97 kts 25°
2026-04-30 02:55 41.89502 -72.59976 3608 ft 103 kts 21°
2026-04-30 02:55 41.90216 -72.59692 3710 ft 111 kts
2026-04-30 02:56 41.90974 -72.59479 3781 ft 118 kts 11°